Location: Ammerl�gen
(47.2167°N, 9.6000°E)
Time: 16:16:19
(UTC+00:00)

Cosmos 909 Rocket - Pass Details

Date: 21 April 2021
Orbit: 989 x 2090 km, 65.9° (Epoch: 06 May)

Event Time Altitude Azimuth Distance (km) Brightness Sun altitude
Rises 19:09:45 0° 205° (SSW) 3,800 7.1 -8.7°
Reaches altitude 10° 19:12:23 10° 204° (SSW) 2,791 6.3 -9.1°
Maximum altitude 19:18:40 71° 121° (ESE) 1,044 4.0 -10.0°
Drops below altitude 10° 19:25:05 10° 39° (NE) 2,850 6.4 -10.9°
Sets 19:27:48 0° 37° (NE) 3,886 7.1 -11.3°
